This is the latest recevied weather packets stored in our database for station/object IR3AS. If no packets are shown the sender has not sent any weather packets the latest 10 day(s).
| Time | Temp. | Humidity | Pressure | Rain* | Wind** | Luminosity | Snow |
|---|---|---|---|---|---|---|---|
| 1777706161 | 3.89° C | 60% | 864.7 hPa | 0 mm | - | - | - |
| 1777705861 | 4.44° C | 60% | 864.4 hPa | 0 mm | - | - | - |
| 1777705561 | 4.44° C | 60% | 864.2 hPa | 0 mm | - | - | - |
| 1777705262 | 4.44° C | 59% | 864.1 hPa | 0 mm | - | - | - |
| 1777704961 | 5° C | 57% | 863.9 hPa | 0 mm | - | - | - |
| 1777704661 | 5.56° C | 56% | 863.8 hPa | 0 mm | - | - | - |
| 1777704361 | 6.11° C | 54% | 863.9 hPa | 0 mm | - | - | - |
| 1777704061 | 6.67° C | 53% | 863.9 hPa | 0 mm | - | - | - |
| 1777703761 | 6.11° C | 55% | 863.7 hPa | 0 mm | - | - | - |
| 1777703461 | 5.56° C | 56% | 863.8 hPa | 0 mm | - | - | - |
| 1777703161 | 4.44° C | 57% | 863.9 hPa | 0 mm | - | - | - |
| 1777702861 | 3.89° C | 58% | 863.9 hPa | 0 mm | - | - | - |
| 1777702561 | 3.89° C | 58% | 863.8 hPa | 0 mm | - | - | - |
| 1777702261 | 3.89° C | 56% | 864 hPa | 0 mm | - | - | - |
| 1777701961 | 5° C | 54% | 863.8 hPa | 0 mm | - | - | - |
| 1777701661 | 5.56° C | 53% | 863.7 hPa | 0 mm | - | - | - |
| 1777701361 | 5.56° C | 53% | 864 hPa | 0 mm | - | - | - |
| 1777701061 | 5.56° C | 52% | 863.9 hPa | 0 mm | - | - | - |
| 1777700761 | 5° C | 53% | 863.8 hPa | 0 mm | - | - | - |
| 1777700461 | 5° C | 54% | 863.6 hPa | 0 mm | - | - | - |
| 1777700161 | 4.44° C | 55% | 863.5 hPa | 0 mm | - | - | - |
| 1777699861 | 4.44° C | 55% | 863.6 hPa | 0 mm | - | - | - |
| 1777699561 | 3.89° C | 55% | 863.4 hPa | 0 mm | - | - | - |
| 1777699261 | 3.89° C | 56% | 863.4 hPa | 0 mm | - | - | - |
| 1777698961 | 3.89° C | 56% | 863.3 hPa | 0 mm | - | - | - |
* Rain latest hour (hover to see other rain measurements)
** Current wind speed in m/s (hover to see current wind gust speed)